Temp
-11 -10 -11 -10 -11 -11 -11 -12 -12 -12 -12 -12 -12 -12 -12 -12 -12 -12 -12 -12 -12 -11 -11 -11 -11 -10 -10 -10 -10 -10 -10 -10 -10 -10 -10 -10 -10 -10 -10 -10 -10 -10 -9 -9 -9 -9 -9
-11 -11 -11 -11 -11 -11 -11 -12 -12 -13 -12 -12 -12 -12 -12 -12 -12 -12 -12 -12 -12 -12 -12 -11 -11 -11 -10 -10 -10 -10 -10 -10 -10 -10 -10 -10 -10 -10 -10 -10 -10 -10 -10 -10 -9 -9 -9
-11 -11 -11 -12 -12 -11 -11 -12 -12 -12 -13 -12 -12 -12 -12 -12 -12 -12 -12 -12 -12 -13 -12 -12 -11 -11 -11 -11 -11 -11 -11 -10 -10 -10 -10 -10 -10 -10 -10 -10 -10 -10 -10 -10 -10 -10 -10
-11 -11 -11 -11 -12 -12 -12 -12 -12 -13 -13 -13 -12 -12 -12 -12 -12 -12 -12 -12 -12 -12 -13 -12 -12 -11 -11 -11 -11 -11 -11 -11 -11 -11 -10 -10 -10 -10 -10 -10 -10 -10 -10 -10 -10 -10 -10
-12 -11 -11 -12 -12 -12 -12 -12 -12 -12 -13 -13 -13 -13 -12 -12 -12 -12 -12 -12 -12 -12 -12 -13 -12 -12 -12 -12 -11 -11 -11 -11 -11 -11 -11 -11 -11 -11 -10 -10 -11 -10 -10 -10 -10 -10 -10
-12 -12 -12 -12 -12 -12 -12 -12 -13 -12 -13 -13 -13 -13 -13 -13 -13 -12 -12 -12 -12 -13 -12 -13 -13 -12 -12 -12 -12 -12 -12 -12 -12 -11 -11 -11 -11 -11 -11 -11 -10 -11 -11 -11 -11 -11 -10
-12 -12 -12 -13 -13 -13 -13 -12 -12 -13 -13 -13 -13 -13 -13 -13 -13 -13 -13 -12 -12 -12 -13 -13 -13 -13 -13 -12 -12 -12 -12 -12 -12 -12 -11 -11 -11 -11 -11 -11 -11 -11 -11 -11 -11 -11 -11
-13 -13 -13 -13 -13 -13 -13 -13 -13 -13 -13 -13 -14 -13 -14 -13 -13 -13 -13 -13 -13 -13 -13 -13 -13 -13 -13 -13 -13 -12 -12 -12 -12 -12 -12 -11 -11 -11 -12 -12 -12 -12 -12 -11 -11 -11 -11
-13 -13 -13 -13 -14 -13 -14 -14 -13 -13 -13 -14 -14 -14 -14 -14 -14 -14 -14 -14 -14 -14 -14 -13 -13 -13 -13 -13 -13 -13 -13 -12 -12 -12 -12 -12 -12 -12 -12 -12 -12 -12 -12 -12 -12 -12 -11
-14 -14 -14 -14 -14 -14 -14 -14 -14 -14 -13 -13 -14 -14 -14 -14 -14 -14 -14 -14 -14 -14 -14 -13 -14 -13 -13 -13 -13 -13 -13 -13 -13 -13 -13 -12 -12 -12 -12 -12 -12 -12 -12 -12 -12 -12 -11
-14 -14 -14 -14 -14 -15 -15 -14 -14 -14 -14 -14 -14 -14 -14 -14 -14 -14 -15 -15 -15 -15 -14 -14 -13 -13 -13 -13 -13 -13 -13 -13 -13 -13 -13 -12 -12 -12 -12 -12 -13 -12 -12 -12 -12 -12 -12
-14 -14 -14 -14 -14 -15 -15 -15 -15 -15 -15 -14 -14 -14 -15 -15 -15 -15 -15 -15 -15 -15 -14 -14 -13 -13 -13 -13 -13 -13 -13 -13 -13 -13 -13 -13 -13 -13 -13 -13 -13 -13 -13 -13 -13 -13 -12
-15 -14 -14 -14 -14 -15 -15 -15 -15 -16 -15 -15 -15 -15 -15 -15 -15 -16 -15 -15 -15 -14 -14 -14 -14 -14 -14 -14 -14 -14 -14 -14 -14 -13 -13 -13 -13 -13 -13 -13 -13 -13 -14 -14 -13 -13 -11
-16 -15 -15 -14 -14 -15 -15 -16 -16 -16 -16 -16 -16 -15 -16 -15 -16 -16 -16 -15 -15 -14 -14 -14 -14 -14 -14 -14 -14 -14 -14 -14 -13 -13 -13 -13 -14 -14 -13 -13 -14 -14 -14 -14 -13 -13 -12
-18 -15 -15 -15 -15 -16 -17 -17 -17 -17 -17 -16 -16 -16 -16 -16 -17 -16 -16 -15 -14 -14 -14 -14 -15 -15 -15 -15 -14 -14 -14 -14 -14 -14 -14 -14 -14 -14 -14 -14 -15 -14 -14 -14 -14 -14 -13
-19 -18 -18 -17 -16 -16 -17 -17 -18 -17 -17 -17 -17 -17 -17 -17 -17 -17 -16 -15 -15 -15 -15 -15 -15 -15 -15 -16 -15 -15 -15 -14 -14 -15 -15 -15 -15 -14 -15 -15 -15 -14 -14 -15 -15 -14 -14
-20 -19 -19 -18 -18 -17 -18 -18 -18 -18 -18 -17 -18 -18 -18 -18 -18 -17 -16 -16 -16 -16 -16 -17 -17 -16 -16 -16 -16 -16 -15 -15 -15 -15 -15 -15 -15 -15 -15 -15 -15 -15 -15 -15 -15 -15 -14
-21 -19 -20 -20 -19 -19 -19 -19 -19 -19 -19 -18 -17 -18 -19 -19 -19 -18 -16 -17 -17 -17 -17 -17 -17 -17 -17 -17 -17 -17 -17 -16 -16 -16 -16 -16 -16 -16 -16 -16 -16 -15 -15 -15 -15 -15 -15
-20 -20 -20 -20 -20 -20 -20 -20 -19 -20 -19 -18 -18 -18 -19 -19 -18 -17 -17 -18 -17 -18 -18 -18 -18 -17 -17 -18 -18 -18 -18 -18 -18 -17 -17 -16 -16 -16 -16 -16 -16 -15 -15 -16 -16 -16 -15
-22 -22 -21 -21 -20 -21 -21 -20 -20 -20 -20 -19 -19 -18 -18 -18 -18 -18 -18 -18 -18 -18 -19 -18 -18 -18 -18 -18 -18 -18 -19 -19 -19 -19 -18 -18 -17 -17 -16 -17 -17 -16 -16 -17 -17 -16 -14
-24 -23 -22 -22 -22 -21 -21 -21 -21 -20 -20 -20 -19 -19 -19 -18 -18 -18 -18 -18 -18 -19 -19 -19 -19 -18 -19 -19 -19 -19 -19 -19 -19 -19 -19 -19 -18 -18 -18 -17 -17 -17 -17 -17 -16 -16 -15
-27 -25 -24 -23 -23 -22 -22 -21 -21 -21 -21 -20 -20 -19 -19 -19 -19 -19 -19 -18 -19 -19 -19 -19 -19 -19 -19 -19 -19 -19 -19 -19 -19 -19 -19 -19 -19 -19 -19 -18 -18 -17 -17 -17 -16 -16 -15
-29 -28 -27 -25 -23 -24 -23 -22 -22 -22 -22 -21 -20 -20 -20 -20 -19 -20 -18 -19 -19 -20 -19 -19 -19 -19 -19 -19 -19 -19 -18 -18 -19 -19 -19 -19 -18 -18 -18 -18 -18 -18 -16 -17 -17 -17 -17
-30 -29 -28 -27 -26 -24 -24 -23 -23 -23 -22 -22 -22 -21 -21 -20 -20 -19 -19 -19 -20 -20 -20 -20 -20 -20 -20 -20 -20 -20 -20 -19 -19 -19 -19 -19 -19 -19 -19 -19 -19 -17 -17 -18 -18 -18 -18
-32 -30 -29 -28 -27 -26 -24 -24 -24 -23 -23 -23 -23 -22 -22 -21 -21 -21 -21 -20 -20 -20 -20 -20 -21 -21 -21 -21 -21 -20 -20 -20 -19 -19 -19 -19 -20 -20 -20 -20 -19 -18 -17 -18 -19 -18 -18
-34 -31 -30 -29 -28 -27 -25 -24 -24 -23 -24 -24 -24 -23 -23 -23 -22 -22 -22 -22 -21 -21 -22 -22 -21 -21 -21 -21 -21 -21 -21 -20 -20 -20 -20 -20 -20 -21 -20 -20 -20 -17 -18 -19 -19 -18 -18
-34 -34 -31 -29 -29 -28 -27 -26 -24 -24 -25 -24 -24 -24 -24 -24 -23 -23 -23 -23 -23 -22 -23 -23 -23 -23 -23 -22 -22 -22 -22 -21 -21 -20 -21 -21 -21 -21 -21 -21 -19 -18 -18 -19 -19 -18 -18
-34 -34 -33 -30 -29 -28 -28 -27 -26 -25 -24 -25 -25 -25 -25 -24 -24 -24 -24 -24 -24 -24 -24 -24 -24 -24 -23 -23 -23 -23 -22 -22 -22 -20 -21 -22 -22 -22 -22 -22 -21 -18 -19 -20 -20 -20 -19
-34 -34 -33 -32 -29 -29 -28 -27 -27 -25 -25 -26 -26 -26 -26 -25 -25 -25 -25 -25 -25 -24 -24 -24 -24 -24 -25 -25 -24 -24 -24 -23 -22 -22 -23 -23 -21 -22 -23 -22 -22 -21 -20 -20 -19 -20 -20
Height
5716 5715 5716 5716 5716 5718 5722 5724 5725 5726 5729 5731 5733 5736 5738 5742 5743 5746 5748 5752 5757 5761 5767 5771 5775 5778 5782 5787 5791 5795 5797 5801 5805 5809 5814 5817 5819 5823 5826 5829 5832 5835 5838 5841 5843 5845 5849
5712 5711 5710 5711 5712 5713 5716 5719 5722 5724 5725 5727 5729 5731 5733 5737 5741 5743 5745 5748 5750 5756 5761 5765 5770 5773 5777 5782 5785 5789 5793 5797 5800 5804 5809 5813 5816 5820 5822 5825 5829 5831 5834 5837 5839 5842 5844
5706 5706 5706 5706 5707 5709 5708 5711 5715 5717 5720 5725 5725 5728 5729 5732 5736 5739 5741 5744 5747 5750 5755 5759 5763 5767 5771 5777 5780 5784 5788 5792 5795 5799 5803 5807 5811 5815 5819 5821 5824 5827 5830 5833 5836 5839 5841
5701 5700 5701 5701 5701 5702 5704 5705 5707 5712 5714 5718 5721 5724 5727 5728 5730 5733 5738 5740 5743 5745 5749 5753 5756 5760 5766 5768 5774 5778 5782 5785 5789 5793 5797 5801 5805 5809 5813 5816 5818 5822 5825 5829 5833 5834 5837
5694 5694 5694 5694 5694 5694 5696 5699 5700 5703 5707 5709 5714 5716 5720 5723 5726 5727 5731 5735 5736 5739 5742 5745 5750 5754 5758 5763 5767 5771 5775 5779 5783 5786 5790 5794 5798 5802 5806 5810 5814 5817 5822 5825 5828 5830 5832
5688 5688 5687 5687 5688 5688 5687 5690 5692 5694 5698 5703 5703 5707 5710 5714 5718 5720 5723 5727 5730 5732 5735 5738 5741 5747 5751 5758 5760 5764 5768 5772 5776 5779 5783 5787 5790 5795 5799 5803 5809 5814 5816 5820 5822 5826 5827
5678 5679 5680 5680 5681 5682 5683 5680 5684 5687 5690 5693 5700 5701 5701 5704 5707 5712 5716 5719 5724 5727 5729 5733 5738 5740 5747 5750 5754 5758 5762 5765 5768 5772 5776 5779 5784 5789 5796 5799 5801 5805 5808 5812 5814 5819 5820
5670 5670 5671 5671 5673 5673 5674 5675 5674 5676 5681 5684 5686 5691 5695 5696 5699 5701 5707 5710 5715 5719 5721 5723 5727 5731 5736 5740 5744 5748 5753 5757 5761 5765 5769 5773 5777 5781 5786 5789 5794 5797 5801 5802 5809 5812 5813
5659 5660 5661 5662 5664 5665 5667 5668 5669 5669 5671 5675 5679 5683 5685 5688 5692 5694 5695 5701 5705 5709 5712 5715 5718 5722 5727 5731 5736 5740 5744 5748 5751 5756 5760 5764 5769 5773 5777 5781 5785 5788 5792 5795 5801 5804 5805
5649 5649 5651 5652 5653 5654 5657 5658 5661 5661 5663 5666 5669 5672 5678 5681 5686 5688 5691 5690 5695 5699 5701 5706 5709 5712 5716 5721 5725 5730 5734 5738 5742 5748 5750 5754 5759 5764 5768 5772 5776 5780 5784 5788 5791 5795 5796
5638 5638 5641 5642 5643 5645 5646 5648 5650 5653 5653 5656 5658 5661 5665 5668 5675 5678 5682 5684 5687 5690 5688 5695 5698 5703 5708 5711 5719 5722 5726 5729 5733 5738 5744 5748 5752 5755 5759 5764 5768 5772 5776 5779 5781 5783 5786
5625 5628 5630 5630 5631 5633 5636 5638 5639 5640 5644 5646 5649 5652 5654 5658 5661 5667 5669 5674 5677 5681 5672 5680 5687 5692 5698 5703 5708 5711 5715 5720 5725 5728 5732 5736 5740 5744 5749 5754 5758 5762 5765 5768 5771 5773 5774
5609 5611 5612 5614 5618 5619 5621 5624 5626 5629 5631 5634 5637 5641 5644 5646 5651 5653 5658 5661 5664 5662 5667 5673 5678 5684 5688 5693 5697 5701 5706 5710 5714 5718 5722 5726 5730 5735 5739 5743 5747 5751 5756 5758 5760 5761 5762
5589 5592 5595 5599 5601 5603 5606 5608 5612 5616 5618 5621 5624 5628 5632 5636 5640 5642 5643 5649 5649 5654 5659 5665 5672 5675 5679 5683 5687 5691 5695 5699 5703 5707 5712 5715 5720 5724 5729 5734 5738 5742 5746 5749 5748 5752 5756
5550 5564 5573 5579 5582 5585 5588 5592 5596 5600 5604 5607 5610 5615 5620 5624 5627 5628 5633 5633 5639 5644 5650 5657 5662 5666 5670 5674 5678 5680 5684 5689 5693 5697 5701 5704 5707 5712 5716 5721 5726 5729 5732 5737 5740 5742 5743
5536 5546 5550 5555 5561 5566 5572 5576 5581 5584 5588 5592 5595 5600 5607 5610 5612 5616 5619 5623 5629 5633 5638 5647 5651 5655 5659 5663 5666 5670 5673 5678 5682 5685 5689 5691 5695 5700 5704 5709 5712 5715 5722 5725 5726 5729 5731
5510 5519 5522 5530 5535 5543 5549 5556 5563 5568 5573 5576 5580 5584 5592 5595 5599 5602 5606 5614 5620 5624 5631 5637 5640 5643 5648 5653 5655 5660 5662 5667 5670 5674 5676 5679 5683 5688 5692 5695 5701 5705 5708 5713 5717 5720 5721
5484 5495 5504 5509 5512 5523 5528 5534 5540 5548 5554 5558 5563 5568 5578 5580 5586 5592 5599 5606 5612 5618 5621 5625 5629 5633 5636 5641 5644 5647 5651 5654 5659 5662 5664 5669 5671 5675 5680 5684 5688 5692 5696 5699 5702 5708 5712
5454 5470 5480 5489 5495 5503 5508 5517 5522 5527 5535 5543 5547 5553 5560 5566 5571 5579 5587 5594 5598 5607 5610 5615 5619 5622 5626 5631 5633 5636 5638 5643 5646 5650 5654 5658 5659 5663 5667 5671 5674 5678 5685 5689 5693 5697 5700
5427 5442 5456 5467 5477 5483 5493 5501 5507 5510 5517 5523 5527 5533 5540 5549 5561 5567 5573 5580 5586 5594 5599 5602 5607 5612 5615 5618 5622 5625 5629 5633 5636 5639 5642 5646 5649 5653 5657 5663 5666 5669 5675 5679 5681 5683 5688
5395 5411 5427 5435 5451 5468 5477 5480 5486 5493 5499 5503 5508 5518 5530 5538 5549 5554 5559 5568 5575 5582 5586 5590 5594 5601 5605 5608 5612 5614 5619 5621 5625 5629 5633 5637 5640 5643 5646 5649 5652 5657 5661 5665 5667 5674 5675
5367 5381 5398 5414 5432 5447 5456 5464 5473 5476 5482 5481 5492 5505 5515 5525 5533 5537 5544 5555 5563 5569 5573 5579 5585 5590 5592 5595 5600 5602 5603 5606 5612 5617 5620 5624 5627 5630 5632 5635 5638 5642 5648 5652 5655 5657 5661
5343 5357 5374 5391 5406 5428 5434 5448 5453 5457 5462 5461 5482 5492 5502 5508 5516 5523 5536 5541 5551 5556 5559 5565 5571 5572 5577 5583 5582 5584 5587 5592 5598 5603 5607 5611 5614 5617 5620 5623 5624 5627 5639 5639 5644 5648 5655
5325 5337 5353 5369 5383 5404 5417 5427 5439 5445 5449 5462 5470 5477 5487 5493 5500 5514 5518 5525 5534 5538 5543 5548 5551 5556 5565 5565 5567 5570 5573 5579 5585 5592 5596 5600 5602 5602 5605 5607 5605 5623 5622 5629 5630 5634 5637
5311 5322 5334 5350 5365 5381 5402 5411 5423 5432 5439 5449 5456 5464 5474 5480 5489 5492 5504 5510 5514 5518 5523 5529 5535 5540 5545 5547 5549 5552 5558 5564 5574 5578 5584 5587 5587 5587 5587 5590 5598 5605 5610 5613 5616 5620 5622
5304 5309 5321 5335 5351 5367 5384 5398 5412 5420 5429 5439 5446 5454 5461 5466 5475 5485 5482 5488 5497 5505 5508 5516 5520 5523 5527 5530 5531 5534 5542 5553 5556 5563 5568 5569 5570 5568 5572 5571 5572 5595 5602 5600 5595 5591 5609
5303 5305 5311 5325 5339 5355 5370 5382 5397 5409 5417 5426 5433 5440 5445 5455 5465 5466 5472 5481 5484 5490 5494 5499 5500 5507 5510 5512 5515 5519 5526 5534 5536 5545 5551 5551 5552 5551 5558 5553 5560 5577 5579 5579 5572 5589 5589
5305 5305 5307 5316 5329 5344 5359 5372 5383 5394 5409 5414 5422 5430 5437 5448 5452 5455 5461 5466 5472 5476 5482 5490 5488 5490 5495 5497 5499 5503 5507 5513 5517 5533 5530 5533 5536 5540 5541 5536 5541 5561 5561 5561 5563 5562 5568
5309 5308 5308 5310 5322 5337 5349 5361 5370 5379 5395 5402 5413 5420 5429 5436 5440 5444 5447 5454 5460 5466 5470 5473 5478 5480 5484 5484 5487 5490 5493 5495 5507 5507 5515 5509 5520 5524 5524 5525 5532 5539 5540 5539 5546 5545 5546
Wind_Speed
16 14 13 14 15 17 20 21 23 24 26 26 23 26 28 30 33 34 34 34 36 37 36 33 33 32 32 32 34 34 33 32 30 31 33 32 31 30 28 27 25 23 22 21 20 19 17
21 19 17 17 18 19 20 24 24 26 28 28 27 26 29 31 32 35 35 35 34 39 35 36 35 35 35 34 35 36 36 35 33 32 35 35 32 31 30 29 27 26 25 24 22 21 21
25 24 23 21 20 22 24 26 28 28 29 30 30 28 30 31 33 35 37 37 36 38 40 37 38 38 37 36 37 37 38 38 36 35 37 38 37 34 31 31 29 29 28 27 24 23 22
28 28 27 26 25 24 26 28 29 31 31 31 31 31 32 34 34 36 37 38 39 38 38 41 39 40 39 38 39 38 39 40 39 37 38 41 41 38 37 35 34 32 32 29 27 26 25
32 32 31 31 30 28 27 29 31 33 34 34 33 34 34 34 36 36 39 39 40 40 42 41 41 39 41 40 40 40 40 42 41 40 39 43 44 42 41 39 38 36 33 31 31 29 28
35 36 34 34 34 34 32 30 32 34 35 36 37 37 36 36 38 38 39 40 41 42 43 41 44 44 42 40 41 41 42 43 42 42 42 44 47 46 45 42 39 36 35 33 33 32 31
38 38 38 37 37 37 37 35 34 34 35 35 38 38 39 39 40 40 40 41 42 43 43 43 42 41 41 40 41 41 42 43 44 44 44 44 46 47 44 43 44 41 40 39 39 36 36
41 42 41 40 40 39 39 39 38 37 37 36 37 39 41 40 40 41 42 43 42 43 44 44 44 44 44 43 42 44 44 45 44 45 44 46 46 48 49 48 46 45 45 45 41 40 41
44 44 44 42 42 41 41 39 40 40 40 40 39 38 40 42 42 41 42 43 45 44 46 46 46 46 46 47 46 44 45 45 46 47 46 46 47 48 50 50 50 49 48 47 45 43 44
47 46 47 45 43 43 43 41 42 41 43 42 42 41 41 42 42 43 43 43 44 45 48 48 48 48 49 49 50 48 46 47 48 47 48 50 48 48 50 52 52 51 50 50 48 47 48
50 49 48 48 48 46 44 43 43 44 43 44 45 45 44 45 42 44 44 45 45 46 51 50 50 49 48 48 47 49 46 47 48 48 48 49 48 48 50 52 52 53 51 51 50 51 51
54 51 50 50 50 50 48 46 46 44 46 45 45 46 47 46 47 46 46 46 47 49 57 51 50 49 48 48 48 48 47 47 47 48 49 50 49 50 50 51 53 54 53 52 52 53 57
61 59 58 56 53 52 51 49 49 48 49 47 47 47 46 49 48 48 50 50 51 57 56 55 49 48 48 48 47 48 47 47 48 49 50 50 51 50 50 51 53 54 53 53 55 57 60
69 68 66 63 60 57 56 54 51 50 50 51 49 49 48 48 48 52 51 53 56 56 55 55 51 49 46 45 48 48 49 49 49 50 50 51 52 51 51 51 51 52 54 55 57 58 57
77 77 74 71 69 65 60 57 54 53 52 53 52 51 51 47 49 50 53 57 56 56 54 51 50 50 48 47 44 45 47 50 48 49 49 50 52 52 52 51 51 53 55 54 55 56 59
68 73 73 74 73 67 65 62 58 55 55 55 54 53 51 51 51 52 54 55 56 57 55 51 50 50 49 47 45 46 43 46 48 50 50 52 52 52 51 52 53 55 53 52 55 57 59
67 66 76 78 76 75 70 66 62 59 57 58 58 57 55 55 55 57 58 55 52 53 52 49 50 51 50 47 48 47 44 45 42 45 50 53 54 54 53 54 53 54 55 54 55 56 57
71 80 68 66 73 70 71 68 68 64 64 61 61 61 57 57 59 59 58 53 51 47 49 49 49 49 50 48 49 48 49 48 43 44 47 49 53 55 54 53 54 54 55 55 56 56 55
105 85 73 71 66 63 66 68 65 70 62 62 61 62 61 61 60 59 59 55 54 48 47 46 47 48 48 47 48 45 46 44 46 46 45 46 52 54 56 57 57 57 55 54 53 53 55
98 97 74 75 64 71 62 66 70 63 68 69 65 61 62 62 60 60 60 57 58 52 48 48 47 46 46 47 48 48 48 47 47 45 45 45 48 49 50 51 53 54 51 51 53 56 55
90 95 101 72 78 65 58 60 66 65 64 68 68 70 62 61 53 58 61 60 59 56 53 52 52 50 48 47 46 48 48 49 48 47 48 48 49 49 49 49 50 50 50 52 55 53 56
80 87 90 95 87 72 71 56 64 63 63 67 76 65 71 64 56 56 60 58 61 58 59 55 53 52 52 51 51 52 52 53 52 52 53 53 54 55 55 55 56 57 56 56 57 58 59
72 76 80 89 97 77 50 60 68 60 59 65 61 62 63 66 66 62 54 57 53 60 62 58 56 58 59 58 61 62 63 61 58 57 56 57 57 57 57 59 61 62 57 58 58 57 55
57 68 71 76 84 83 57 63 67 60 62 59 55 52 57 63 67 66 64 57 58 57 58 61 63 61 59 58 57 58 60 61 62 62 60 59 59 61 61 62 66 61 62 59 60 60 60
34 55 65 69 74 77 73 47 50 57 56 53 50 54 50 56 58 63 62 61 58 59 61 60 60 61 62 64 65 66 67 64 59 58 58 59 61 62 64 65 65 66 66 65 62 64 64
18 36 57 62 67 65 82 73 51 66 54 59 47 44 43 44 47 45 48 54 63 61 61 63 62 62 63 66 67 68 66 63 65 64 65 67 68 68 69 72 75 65 61 63 67 71 62
7 16 36 53 60 62 62 74 73 51 36 46 56 52 51 42 39 40 40 40 41 43 47 50 55 61 65 69 71 69 67 63 64 62 62 62 62 65 64 70 68 58 58 60 67 62 62
5 4 11 35 51 56 57 63 73 71 56 54 51 45 48 43 42 39 42 42 38 37 38 39 41 50 54 59 63 65 68 71 71 64 66 68 66 65 67 71 73 63 65 69 69 69 65
4 3 3 14 38 49 54 59 67 81 72 58 49 43 42 46 45 45 44 43 39 39 39 43 43 40 40 42 46 49 55 60 62 64 61 67 71 68 67 69 66 68 70 70 68 67 66
Wind_Direction
242 237 240 238 233 234 232 226 221 218 220 222 225 224 219 218 211 209 206 205 212 215 217 216 216 216 219 220 220 220 219 219 218 217 217 217 216 215 215 217 218 219 220 219 219 219 218
246 239 234 236 237 231 234 235 229 226 223 221 224 224 225 226 223 218 217 216 215 213 214 215 217 219 219 221 221 221 222 222 221 220 219 222 221 219 219 220 221 220 221 221 221 222 222
248 242 239 234 234 238 232 231 231 230 228 227 223 228 224 227 228 226 223 222 221 218 220 220 218 218 220 222 223 221 224 224 223 224 220 221 223 222 223 223 221 223 223 223 224 226 226
254 247 241 237 234 234 239 234 235 235 232 231 232 228 227 230 229 228 229 225 225 226 226 223 223 222 222 220 225 224 224 224 224 226 224 222 223 224 224 225 225 225 226 227 228 229 230
256 251 246 239 233 230 233 238 235 235 236 233 233 231 231 232 232 229 231 230 226 228 225 225 224 225 226 226 224 225 227 227 226 226 226 224 224 225 225 226 227 228 230 231 232 233 235
259 257 249 245 239 234 229 232 235 234 237 238 233 231 231 232 232 231 230 231 230 229 228 228 226 227 226 229 229 228 228 229 228 228 228 227 226 227 227 228 231 233 234 235 235 236 240
257 256 255 249 246 242 238 230 233 236 236 235 241 237 231 231 231 232 233 231 230 231 232 232 233 235 233 233 234 234 233 231 230 231 231 232 230 231 231 231 232 232 234 234 235 236 241
258 257 255 253 248 244 242 239 232 232 233 232 233 236 238 235 234 231 233 234 233 232 232 232 233 233 230 232 232 233 233 234 233 234 233 233 234 232 231 233 234 236 235 238 237 240 244
258 257 257 255 253 248 246 243 241 235 232 234 234 236 236 235 237 234 231 235 235 235 234 233 232 233 232 231 232 233 234 235 234 233 235 235 235 234 234 234 235 237 239 240 243 243 246
260 257 257 256 253 250 248 245 245 240 237 235 234 234 237 238 236 236 236 232 235 236 237 236 234 232 233 232 232 234 236 235 235 236 235 236 236 236 235 235 236 238 240 243 245 246 247
262 260 258 257 256 254 249 246 243 244 240 237 236 235 234 232 234 235 236 236 236 235 238 235 235 235 233 233 235 236 239 238 237 238 238 240 238 238 239 238 238 240 241 243 245 246 248
260 260 260 258 254 254 252 248 244 242 243 240 238 237 235 234 231 233 232 236 237 236 238 236 235 236 236 235 234 234 236 238 239 239 239 240 239 238 238 239 239 240 241 243 245 247 249
255 254 253 253 254 252 252 250 246 244 242 241 238 238 237 235 232 231 234 233 235 238 239 239 239 237 238 237 237 238 238 238 240 241 241 242 242 242 241 240 240 240 241 243 246 246 250
255 251 250 251 250 248 248 248 247 244 242 241 240 237 237 237 234 235 230 235 235 239 242 244 242 241 240 239 240 239 239 238 239 240 242 243 242 243 242 242 243 242 243 245 249 251 253
244 244 247 245 246 247 246 245 247 245 241 241 240 239 237 237 237 234 235 234 235 238 241 242 244 244 244 244 242 241 240 239 241 243 243 243 243 241 241 241 241 242 242 244 247 251 253
245 247 242 243 243 246 247 246 247 251 245 239 237 237 238 237 237 237 236 236 237 239 241 239 240 242 241 241 242 241 240 239 238 239 240 241 241 241 240 241 240 241 241 242 243 247 251
237 234 235 237 238 240 243 245 243 246 249 245 239 236 235 236 236 237 238 239 239 242 242 241 241 242 241 241 243 243 244 243 239 239 239 239 238 239 239 240 240 242 243 243 245 247 251
238 234 234 233 236 238 239 240 242 239 241 245 244 239 236 237 238 238 240 241 243 242 243 242 241 241 243 241 240 239 242 241 240 237 238 239 241 240 240 239 239 240 242 242 241 245 249
240 238 241 235 229 227 233 238 239 237 238 240 244 242 237 233 239 244 240 240 242 240 242 243 241 240 241 241 241 240 241 238 240 238 238 240 241 241 240 241 240 240 243 244 246 247 248
235 237 224 232 230 224 226 235 237 237 233 235 236 238 238 239 238 238 240 240 242 241 240 242 241 240 239 240 241 242 241 240 240 239 239 239 241 243 245 248 247 247 247 249 248 249 250
235 232 229 219 236 229 230 231 229 231 235 235 238 238 241 240 243 244 242 243 241 241 240 239 241 242 243 242 243 244 243 243 241 241 242 242 243 244 244 245 245 244 244 245 248 251 252
235 233 231 233 229 225 242 236 234 229 229 237 237 238 235 241 240 242 239 241 242 239 241 240 241 241 238 237 237 236 236 238 240 242 242 244 244 244 245 246 247 248 247 247 247 247 252
236 232 229 223 226 222 217 229 229 230 232 234 232 239 237 238 242 242 244 243 244 242 241 242 242 241 237 237 237 235 236 237 237 238 241 244 246 247 249 249 250 251 252 255 255 256 259
238 233 228 225 224 216 213 215 223 226 232 233 228 232 236 239 239 241 241 244 241 242 244 242 243 244 244 245 246 246 246 244 244 244 245 246 247 248 248 248 249 255 256 259 260 258 257
241 232 229 224 223 225 207 201 216 220 227 229 231 230 231 235 240 237 238 242 243 239 239 242 243 246 246 245 245 246 247 246 246 246 247 248 249 252 253 254 254 252 254 258 261 260 262
237 235 227 225 222 224 220 212 206 213 215 225 231 225 229 229 231 235 231 233 235 239 244 247 248 248 249 248 250 250 249 250 250 251 251 251 252 254 255 256 257 257 256 260 264 261 260
306 252 233 224 221 220 219 226 215 206 223 227 227 231 230 225 220 223 231 233 232 235 238 239 244 246 248 251 251 251 253 255 252 249 252 253 253 256 256 258 258 257 260 263 258 263 264
36 29 239 226 220 219 217 217 220 224 228 210 217 227 233 224 225 226 225 223 228 234 237 237 238 238 242 243 247 250 250 250 251 253 256 256 253 254 255 256 259 261 262 263 265 267 263
25 43 300 230 221 217 216 217 219 220 209 214 233 225 233 231 234 231 229 234 239 239 240 241 242 241 243 242 242 245 250 251 253 252 252 253 257 259 257 258 258 258 259 260 260 261 261